Weather reports worldwide

Advertisment
Dax, France (7603): temperature & dewpoint: 05.12.2019 09:00:00 - 11.12.2019 09:00:00 (CET)Dax, France (7603): temperature 5cm: 05.12.2019 09:00:00 - 11.12.2019 09:00:00 (CET)Dax, France (7603): temperature -20cm & temperature -100cm: 05.12.2019 09:00:00 - 11.12.2019 09:00:00 (CET)Dax, France (7603): wind speed & gusts: 05.12.2019 09:00:00 - 11.12.2019 09:00:00 (CET)Dax, France (7603): wind direction: 05.12.2019 09:00:00 - 11.12.2019 09:00:00 (CET)Dax, France (7603): reduced air pressure: 05.12.2019 09:00:00 - 11.12.2019 09:00:00 (CET)Dax, France (7603): visibility: 05.12.2019 09:00:00 - 11.12.2019 09:00:00 (CET)Dax, France (7603): sunshine duration: 05.12.2019 09:00:00 - 11.12.2019 09:00:00 (CET)Dax, France (7603): precipitation: 05.12.2019 09:00:00 - 11.12.2019 09:00:00 (CET)
Date & Time tt [°C] td [°C] tt 5cm [°C] tt -20cm [°C] tt -100cm [°C] ff [km/h] ff [kn] fx [km/h] fx [kn] dd ppp [hPa] vv [km] sd [min] rr [mm]
11.12.2019 09:00:00 11,6 10,7 9,5 10,5 12,8 17 9 37 20 WNW 1018,5 6 0 0,2
11.12.2019 08:00:00 9,5 7,6 6,7 10,5 12,8 10 5 16 9 WSW 1018,0 12 0 0,0
11.12.2019 07:00:00 7,4 6,0 6,4 10,5 12,8 5 3 13 7 WSW 1017,8 9 0 0,0
11.12.2019 06:00:00 7,3 5,9 6,0 10,5 12,8 2 1 13 7 WNW 1016,6 9 0 0,0
11.12.2019 05:00:00 7,8 5,6 7,2 10,6 12,8 2 1 8 4 NE 1017,2 12 0 0,0
11.12.2019 04:00:00 7,6 5,6 7,0 10,6 12,8 4 2 7 4 ENE 1018,0 12 0 0,0
11.12.2019 03:00:00 7,2 5,7 6,6 10,6 12,8 3 2 7 4 ESE 1018,9 10 0 0,0
11.12.2019 02:00:00 6,9 5,5 6,0 10,6 12,8 3 2 9 5 ESE 1019,6 9 0 0,0
11.12.2019 01:00:00 7,1 5,6 6,2 10,7 12,8 6 4 9 5 SE 1020,4 8 0 0,0
11.12.2019 00:00:00 6,6 5,2 5,8 10,7 12,8 5 3 10 6 ESE 1020,9 7 0 0,0
10.12.2019 23:00:00 6,4 5,2 5,4 10,8 12,8 5 3 10 5 ESE 1021,1 7 0 0,0
10.12.2019 22:00:00 7,6 5,4 6,2 10,8 12,8 4 2 11 6 E 1021,7 8 0 0,0
10.12.2019 21:00:00 7,4 5,7 5,9 10,8 12,8 3 2 9 5 E 1022,1 5 0 0,0
10.12.2019 20:00:00 7,7 5,0 5,7 10,9 12,8 3 2 11 6 ESE 1022,9 5 0 0,0
10.12.2019 19:00:00 8,6 4,8 7,2 10,9 12,8 4 2 14 8 ENE 1023,1 7 0 0,0
10.12.2019 18:00:00 10,9 4,6 9,1 10,8 12,8 3 2 10 5 E 1023,6 12 1 0,0
10.12.2019 17:00:00 11,9 4,4 11,3 10,7 12,8 8 4 24 13 ESE 1024,0 10 42 0,0
10.12.2019 16:00:00 12,9 5,1 13,0 10,6 12,8 14 7 22 12 SE 1024,4 10 53 0,0
10.12.2019 15:00:00 13,7 6,1 14,6 10,5 12,8 12 7 21 11 ESE 1025,1 10 60 0,0
10.12.2019 14:00:00 13,7 6,5 15,2 10,4 12,8 8 5 16 9 SE 1026,5 11 60 0,0
10.12.2019 13:00:00 12,7 6,9 13,0 10,4 12,8 6 3 13 7 SE 1027,6 10 60 0,0
10.12.2019 12:00:00 10,5 7,7 9,2 10,4 12,8 5 3 11 6 SSE 1028,8 8 60 0,0
10.12.2019 11:00:00 8,5 6,6 7,0 10,5 12,8 5 3 12 7 ESE 1029,9 7 60 0,0
10.12.2019 10:00:00 6,4 6,1 4,3 10,5 12,8 6 3 9 5 ESE 1030,0 4,0 60 0,0
10.12.2019 09:00:00 5,0 4,9 2,2 10,7 12,8 4 2 10 5 E 1030,3 4,0 8 0,0
10.12.2019 08:00:00 4,9 4,8 2,2 10,7 12,8 5 3 9 5 E 1030,4 2,5 0 0,0
10.12.2019 07:00:00 5,1 5,0 3,5 10,8 12,8 7 4 12 7 ESE 1030,3 1,8 0 0,0
10.12.2019 06:00:00 5,3 5,0 3,3 10,8 12,7 9 5 11 6 ESE 1030,8 3,2 0 0,0
10.12.2019 05:00:00 5,5 5,1 4,4 10,9 12,8 8 4 9 5 ESE 1031,0 3,4 0 0,0
10.12.2019 04:00:00 5,9 5,3 4,5 11,0 12,8 6 3 7 4 SE 1031,7 3,9 0 0,0
10.12.2019 03:00:00 6,5 5,8 3,8 11,0 12,8 5 3 13 7 SE 1031,8 4,7 0 0,0
10.12.2019 02:00:00 7,0 6,7 4,7 11,1 12,8 4 2 8 5 ESE 1031,8 0,7 0 0,0
10.12.2019 01:00:00 7,8 7,0 5,1 11,1 12,8 4 2 6 3 W 1031,8 5 0 0,0
10.12.2019 00:00:00 7,7 6,6 5,4 11,1 12,8 3 2 7 4 WSW 1031,7 4,8 0 0,0
09.12.2019 23:00:00 9,4 7,5 7,7 11,1 12,8 0 0 21 12 N 1031,5 6 0 0,4
09.12.2019 22:00:00 10,3 6,8 8,5 11,2 12,8 4 2 9 5 NW 1031,4 2,8 0 0,2
09.12.2019 21:00:00 10,7 6,1 9,8 11,2 12,8 5 3 16 9 W 1031,1 7 0 0,0
09.12.2019 20:00:00 11,1 7,4 10,5 11,2 12,8 9 5 24 13 W 1030,3 6 0 0,0
09.12.2019 19:00:00 11,0 7,1 9,1 11,2 12,8 16 9 32 17 WNW 1029,6 8 0 0,0
09.12.2019 18:00:00 10,3 8,2 9,1 11,2 12,8 10 5 39 21 WNW 1028,7 5 1 0,2
09.12.2019 17:00:00 11,9 6,8 10,0 11,1 12,8 12 7 34 18 WNW 1028,2 7 21 0,0
09.12.2019 16:00:00 11,4 7,7 9,7 11,1 12,8 20 11 53 29 WNW 1027,6 6 16 0,2
09.12.2019 15:00:00 10,9 8,5 9,8 11,0 12,8 21 12 51 28 WNW 1027,1 4,0 22 1,0
09.12.2019 14:00:00 11,6 9,2 9,7 11,0 12,8 14 8 66 35 W 1026,7 8 17 1,2
09.12.2019 13:00:00 13,4 8,2 9,6 11,0 12,8 20 11 54 29 WNW 1026,5 8 20 0,4
09.12.2019 12:00:00 13,8 7,6 13,5 11,0 12,8 21 11 56 30 WNW 1026,4 7 30 0,0
09.12.2019 11:00:00 13,5 7,5 11,1 11,0 12,8 23 13 51 28 WNW 1026,1 7 40 0,0
09.12.2019 10:00:00 11,3 8,9 9,8 10,9 12,8 17 9 51 28 W 1025,2 6 18 0,6
09.12.2019 09:00:00 11,1 8,5 9,9 11,0 12,8 20 11 49 26 W 1024,5 7 0 3,7
09.12.2019 08:00:00 11,6 9,0 9,4 11,0 12,8 22 12 61 33 WNW 1023,8 4,0 0 1,6
09.12.2019 07:00:00 12,6 9,2 10,5 10,9 12,8 27 15 64 34 W 1023,3 6 0 0,0
09.12.2019 06:00:00 12,7 8,4 10,9 11,0 12,8 25 14 57 31 W 1022,8 5 0 0,0
09.12.2019 05:00:00 12,3 8,4 10,2 10,9 12,8 25 14 50 27 W 1023,0 6 0 0,2
09.12.2019 04:00:00 13,2 7,6 11,9 10,9 12,8 26 14 56 30 W 1023,4 7 0 0,0
09.12.2019 03:00:00 12,3 9,3 11,4 10,9 12,8 17 9 44 24 W 1023,4 5 0 0,0
09.12.2019 02:00:00 12,7 8,0 12,2 10,9 12,8 21 11 47 26 W 1023,5 7 0 0,0
09.12.2019 01:00:00 12,7 7,8 11,7 10,9 12,8 16 9 30 16 W 1024,0 7 0 0,0
09.12.2019 00:00:00 12,3 7,8 10,8 10,9 12,8 12 6 25 13 WSW 1024,1 7 0 0,0
08.12.2019 23:00:00 12,4 8,5 11,3 11,0 12,8 13 7 34 18 W 1024,2 6 0 0,0
08.12.2019 22:00:00 11,3 8,0 10,4 11,0 12,8 12 6 31 17 W 1024,4 6 0 0,0
08.12.2019 21:00:00 11,3 8,5 10,7 10,9 12,8 10 5 21 11 W 1023,9 6 0 0,0
08.12.2019 20:00:00 11,7 9,3 10,6 10,9 12,8 9 5 25 14 W 1024,0 5 0 0,0
08.12.2019 19:00:00 12,3 10,2 11,3 10,8 12,8 10 5 26 14 W 1022,9 6 0 0,0
08.12.2019 18:00:00 13,1 12,3 12,6 10,7 12,8 15 8 36 19 WNW 1021,5 9 0 1,0
08.12.2019 17:00:00 13,0 12,7 12,4 10,7 12,8 18 10 34 18 WSW 1020,5 1,2 0 0,6
08.12.2019 16:00:00 12,7 12,2 12,2 10,6 12,8 19 10 32 17 WSW 1019,9 1,4 0 2,4
08.12.2019 15:00:00 12,6 11,8 11,6 10,5 12,8 14 8 24 13 WSW 1019,7 2,8 0 1,0
08.12.2019 14:00:00 12,5 10,6 11,5 10,5 12,8 12 6 19 10 WSW 1020,1 5 0 0,4
08.12.2019 13:00:00 12,0 10,2 11,6 10,5 12,8 3 2 5 3 WSW 1020,5 12 0 0,0
08.12.2019 12:00:00 11,4 10,0 10,5 10,4 12,8 3 2 13 7 S 1021,2 7 0 0,0
08.12.2019 11:00:00 9,6 8,5 9,2 10,5 12,8 3 2 6 4 WNW 1021,5 13 0 0,0
08.12.2019 10:00:00 8,2 7,4 6,2 10,5 12,8 3 1 10 5 W 1021,0 16 50 0,0
08.12.2019 09:00:00 6,2 6,1 3,5 10,6 12,8 5 3 9 5 ESE 1021,0 2,9 10 0,0
08.12.2019 08:00:00 5,4 5,1 3,9 10,6 12,8 6 4 9 5 ESE 1021,2 0,2 0 0,0
08.12.2019 07:00:00 6,1 6,0 4,2 10,7 12,8 2 1 7 4 E 1021,0 2,4 0 0,0
08.12.2019 06:00:00 6,1 5,7 4,5 10,7 12,8 6 4 10 5 SE 1021,1 0,4 0 0,0
08.12.2019 05:00:00 7,5 7,2 5,9 10,7 12,8 6 3 9 5 ESE 1021,5 2,3 0 0,0
08.12.2019 04:00:00 8,1 8,0 5,7 10,8 12,8 3 2 6 3 ESE 1022,2 2,7 0 0,0
08.12.2019 03:00:00 7,6 7,2 5,9 10,8 12,8 0 0 7 4 N 1022,6 1,6 0 0,0
08.12.2019 02:00:00 8,2 7,4 6,8 10,9 12,8 5 3 6 4 SE 1022,7 1,5 0 0,0
08.12.2019 01:00:00 8,9 8,3 7,4 10,9 12,8 4 2 6 3 SE 1023,3 3,8 0 0,0
08.12.2019 00:00:00 9,1 8,2 7,6 10,9 12,8 2 1 7 4 S 1023,5 3,5 0 0,0
07.12.2019 23:00:00 10,1 8,4 8,4 10,9 12,8 0 0 10 5 N 1023,6 10 0 0,0
07.12.2019 22:00:00 11,7 9,3 9,5 10,9 12,8 6 3 11 6 S 1023,7 12 0 0,0
07.12.2019 21:00:00 11,8 9,9 11,2 10,8 12,8 3 1 7 4 SSE 1023,9 7 0 0,0
07.12.2019 20:00:00 12,1 9,8 11,2 10,8 12,8 5 3 12 6 S 1024,0 10 0 0,0
07.12.2019 19:00:00 12,6 10,0 11,8 10,7 12,8 3 1 5 3 SE 1023,8 9 0 0,0
07.12.2019 18:00:00 13,5 9,7 12,9 10,6 12,8 3 2 8 4 N 1023,6 14 1 0,0
07.12.2019 17:00:00 14,3 9,7 14,4 10,5 12,8 6 3 11 6 WNW 1023,0 21 60 0,0
07.12.2019 16:00:00 14,9 10,5 15,2 10,4 12,8 6 3 13 7 WSW 1022,6 22 48 0,0
07.12.2019 15:00:00 14,7 10,1 14,5 10,3 12,8 4 2 11 6 WSW 1022,5 17 15 0,0
07.12.2019 14:00:00 13,9 9,5 14,4 10,2 12,8 7 4 16 8 W 1023,3 22 0 0,0
07.12.2019 13:00:00 14,1 9,3 14,0 10,1 12,8 11 6 17 9 SW 1023,6 20 21 0,0
07.12.2019 12:00:00 12,5 9,5 9,7 10,1 12,8 6 3 10 5 SSW 1024,1 18 12 0,0
07.12.2019 11:00:00 9,1 7,5 8,7 10,1 12,8 4 2 10 6 S 1024,7 13 0 0,0
07.12.2019 10:00:00 8,2 7,1 6,8 10,1 12,8 7 4 9 5 S 1024,3 10 22 0,0
07.12.2019 09:00:00 6,9 6,5 4,9 10,2 12,9 8 4 10 6 SSE 1024,0 6 11 0,0
07.12.2019 08:00:00 5,8 5,4 4,2 10,2 12,9 3 2 10 6 S 1023,9 2,2 0 0,0
07.12.2019 07:00:00 6,8 6,7 4,5 10,2 12,9 3 2 10 5 SSE 1023,2 2,1 0 0,0
07.12.2019 06:00:00 7,1 6,8 6,2 10,2 12,9 5 3 7 4 SE 1022,8 2,1 0 0,0
07.12.2019 05:00:00 7,8 7,2 6,1 10,2 12,9 5 3 8 4 SE 1022,8 1,9 0 0,0
07.12.2019 04:00:00 8,6 8,3 6,7 10,3 12,9 0 0 8 4 N 1022,9 3,0 0 0,0
07.12.2019 03:00:00 9,4 8,5 8,1 10,3 12,9 0 0 12 7 N 1023,0 6 0 0,0
07.12.2019 02:00:00 9,8 8,9 8,8 10,2 12,9 10 5 16 9 SSW 1022,6 6 0 0,0
07.12.2019 01:00:00 9,4 9,1 7,7 10,2 12,9 8 5 12 6 SSW 1023,3 3,9 0 0,0
07.12.2019 00:00:00 7,9 7,6 7,4 10,3 12,9 2 1 8 5 SSE 1023,8 2,3 0 0,0
06.12.2019 23:00:00 8,0 7,6 6,9 10,3 12,9 0 0 5 3 N 1023,4 2,9 0 0,0
06.12.2019 22:00:00 7,5 7,1 6,7 10,3 12,9 0 0 12 6 N 1022,7 2,9 0 0,0
06.12.2019 21:00:00 8,3 7,9 7,0 10,3 12,9 4 2 11 6 W 1022,4 3,0 0 0,0
06.12.2019 20:00:00 8,0 7,1 6,7 10,3 12,9 2 1 7 4 S 1021,7 2,7 0 0,0
06.12.2019 19:00:00 9,8 8,4 8,2 10,3 12,9 4 2 6 4 NW 1021,6 2,8 0 0,0
06.12.2019 18:00:00 11,7 8,4 10,3 10,2 12,9 3 2 6 4 NNE 1021,3 9 1 0,0
06.12.2019 17:00:00 13,8 8,8 13,3 10,0 13,0 0 0 10 6 N 1020,9 12 5 0,0
06.12.2019 16:00:00 14,9 8,6 15,3 9,9 13,0 5 3 14 8 E 1020,8 12 49 0,0
06.12.2019 15:00:00 14,9 8,8 16,8 9,8 13,0 6 3 12 6 NE 1021,1 14 60 0,0
06.12.2019 14:00:00 14,6 8,5 15,6 9,7 12,9 6 3 13 7 E 1021,8 8 60 0,0
06.12.2019 13:00:00 12,7 9,0 12,1 9,6 13,0 5 3 16 8 E 1022,7 8 44 0,0
06.12.2019 12:00:00 10,2 8,6 10,4 9,6 13,0 8 4 15 8 E 1023,5 5 48 0,0
06.12.2019 11:00:00 7,6 7,0 7,6 9,7 13,0 4 2 11 6 E 1024,3 3,0 60 0,0
06.12.2019 10:00:00 5,4 5,4 3,4 9,7 13,0 3 1 11 6 E 1024,5 3,6 60 0,0
06.12.2019 09:00:00 3,4 3,4 2,3 9,7 13,0 4 2 11 6 ESE 1024,3 1,5 12 0,0
06.12.2019 08:00:00 3,2 3,1 2,2 9,8 13,0 6 3 10 5 E 1024,5 1,5 0 0,0
06.12.2019 07:00:00 2,9 2,8 2,3 9,8 13,0 0 0 9 5 N 1024,4 0,1 0 0,0
06.12.2019 06:00:00 3,1 3,0 2,3 9,8 13,0 4 2 6 3 E 1024,3 0,2 0 0,0
06.12.2019 05:00:00 3,1 3,0 2,3 9,8 13,0 0 0 5 3 N 1024,3 0,1 0 0,0
06.12.2019 04:00:00 3,7 3,6 1,8 9,9 13,0 5 3 8 4 N 1024,4 0,1 0 0,0
06.12.2019 03:00:00 4,3 4,2 3,6 9,9 13,0 4 2 7 4 SE 1024,5 0,2 0 0,0
06.12.2019 02:00:00 4,1 4,0 3,5 10,0 13,1 0 0 6 4 N 1024,2 0,1 0 0,0
06.12.2019 01:00:00 4,9 4,8 3,3 10,0 13,0 2 1 6 3 NNE 1024,3 0,1 0 0,0
06.12.2019 00:00:00 5,5 5,4 4,9 10,0 13,0 0 0 5 3 N 1024,5 0,1 0 0,0
05.12.2019 23:00:00 5,9 5,8 4,8 10,1 13,1 5 3 6 4 S 1024,8 0,1 0 0,0
05.12.2019 22:00:00 5,5 5,4 3,8 10,1 13,1 5 3 8 4 S 1024,8 - 0 0,0
05.12.2019 21:00:00 6,6 6,0 5,0 10,1 13,1 0 0 4 2 N 1024,9 0,1 0 0,0
05.12.2019 20:00:00 7,7 7,1 5,3 10,1 13,1 0 0 6 3 N 1024,6 0,9 0 0,0
05.12.2019 19:00:00 8,8 7,4 7,4 10,1 13,1 3 2 8 4 WNW 1024,1 3,8 0 0,0
05.12.2019 18:00:00 10,6 8,0 9,0 9,9 13,1 3 2 6 3 NW 1023,5 9 2 0,0
05.12.2019 17:00:00 13,3 8,6 12,9 9,8 13,1 0 0 8 4 N 1023,1 14 60 0,0
05.12.2019 16:00:00 14,2 8,8 16,0 9,7 13,1 3 1 9 5 WNW 1022,6 13 60 0,0
05.12.2019 15:00:00 13,5 8,5 16,2 9,5 13,2 5 3 14 8 NW 1022,5 12 60 0,0
05.12.2019 14:00:00 12,9 8,2 15,4 9,4 13,2 6 3 13 7 NW 1022,9 12 60 0,0
05.12.2019 13:00:00 12,7 8,4 13,8 9,3 13,1 0 0 8 4 N 1023,6 9 60 0,0
05.12.2019 12:00:00 9,6 8,4 8,1 9,3 13,2 3 2 11 6 SSW 1023,7 5 8 0,0
05.12.2019 11:00:00 7,1 6,7 7,0 9,2 13,2 6 4 9 5 SSE 1023,8 3,0 0 0,0
05.12.2019 10:00:00 5,9 5,5 4,6 9,3 13,2 4 2 10 6 SSE 1023,3 2,8 33 0,0
05.12.2019 09:00:00 4,5 4,4 3,7 9,3 13,2 4 2 8 5 S 1022,7 3,0 0 0,0

tt = temperature
td = dewpoint
tt 5cm = temperature 5cm
tt -20cm = temperature -20cm
tt -100cm = temperature -100cm
ff = wind speed
fx = gusts
dd = wind direction
ppp = reduced air pressure
vv = visibility
sd = sunshine duration
rr = precipitation

Next stations